STARLINK-30104, 56300

Orbit data source: Space-Track

STARLINK-30104, 56300 is a payload satellite owned by SpaceX/Seattle (US) in LEO that was launched on Wed, 19 Apr 2023 UTC via an FALCON 9 launch vehicle from the Air Force Eastern Test Range (AFETR). Payload-class satellites include a variety of spacecraft equipped with specific instruments for various scientific and technological missions. These include communications satellites like Starlink; space stations such as the ISS; scientific satellites like the Hubble; Earth observation satellites from companies like Planet Labs, Umbra, and HawkEye 360; GPS; miniature CubeSats for education and research; and military/defense satellites.

Loading next visibility...
Identifier
56300, 2023-056Q
Orbit
LEO
Last TLE update
12 hours ago
Origin
Manufacturer
SpaceX/Seattle
Mission
Operational Commercial Communications
Bus & Motor
STARLINK V2M, Unknown motor
Mass
730 kg wet, ~700 kg dry
Launch date (UTC)
2023-04-19 (2 years ago)
Launch vehicle
FALCON 9
Launch site
Air Force Eastern Test Range (AFETR)
Object type
Payload
Rocket body
Debris
Shape & HBR
Box + 2 Pan, 29 m
Radar Cross Section
33.884 m², Large (>1 m²)

Expand to show TLE details & history

TLE from 12 hours ago
0 STARLINK-30104
1 56300U 23056Q   25130.51894863  .00000224  00000-0  31651-4 0  9993
2 56300  43.0042  57.2444 0000920 266.5310  93.5427 15.02536865114488
Epoch: 2025-05-10T12:27Z
Definitive object data (Epoch: 2025-05-10T12:27:17.161Z)
Latitude
-0.00004°
Longitude
1.86328°
Altitude
558.895 km
Speed
7.584 km/s
True Right ascension
03h 48m 58s
True Declination
0° 00' 00"
Sunlit
Object was in daylight at TLE epoch
Visualization TLE readout
Latitude
41.38384°
Longitude
109.24816°
Altitude
562.473 km
Speed
7.586 km/s
Apparent Right ascension
15h 19m 46s
Apparent Declination
8° 14' 24"
Sunlit
Object is in daylight
Visualization observer readout
Local Sidereal Time
08:20:56
Azimuth
74.182° E
Elevation
-5.786°
Doppler factor
1
Orbital elements
Apogee altitude
561.639 km
Perigee altitude
560.362 km
Semi-major axis
6,939.137 km
Eccentricity
0.000092
Inclination
43.0042°
RAAN
57.2444°
Arg. of periapsis
266.531°
True anomaly
93.55322°
Mean anomaly
93.5427°
Eccentric anomaly
93.54796°
Mean motion
3.75478 °/min
BSTAR
0.000031651
Orbital period
95.88 mins
Loading maneuver chart data...
Loading SW <> Apogee altitude chart data...
Loading historical data...
Loading historical data...
Loading historical data...
Loading historical data...
Loading historical data...
Loading historical data...
Loading historical data...

STARLINK-30104 Visibility forecast

Observer location: undefined°, undefined°

Span
Click to sort rows by Start time (UTC) header in descending order
Start Az.
Max El. time (UTC)
Max El. Az.
Max El.
End time (UTC)
End Az.
7 mins2025-05-11 01:34:15.467Z285.533° WNW2025-05-11 01:38:15.467Z26.778° NE38.747°2025-05-11 01:41:15.467Z79.509° E
6 mins2025-05-11 03:16:15.467Z285.172° WNW2025-05-11 03:18:15.467Z264.056° W42.872°2025-05-11 03:22:15.467Z115.122° SE
4 mins2025-05-11 04:57:15.467Z248.886° W2025-05-11 04:59:15.467Z210.951° SW19.612°2025-05-11 05:01:15.467Z176.816° S
6 mins2025-05-11 22:11:15.467Z211.734° SW2025-05-11 22:13:15.467Z157.203° SSE35.474°2025-05-11 22:17:15.467Z79.313° E
6 mins2025-05-11 23:51:15.467Z269.784° W2025-05-11 23:54:15.467Z13.766° NNE41.953°2025-05-11 23:57:15.467Z69.583° E
|